Zurück zum Katalog

AZERSPACE 2/INTELSAT 38

AktivKommunikationGEO
NORAD 43632·PAYLOAD·🇦🇿 Azerbaijan

Gestartet Sep 25, 2018 von Guiana Space Centre

Loading…

TLE

AktuellSource: CelesTrak SupGP

Epoche: Sep 14, 2026, 00:00 UTC

1 43632C 18074A   26257.00000000 -.00004076  00000+0  00000+0 0  2573
2 43632   0.0037 210.6622 0001336 309.5428 237.8899  1.00271802    11

Verfolge AZERSPACE 2/INTELSAT 38 in Echtzeit mit AllMySat

Download on the App Store